Flight Track Log - Related Links

Times and Time Zones

All times are in EDT time to prevent confusion due to time zone crossing. See the SWA3939 flight status page for this flight to view local times or setup timezone preferences in your user account.

Time Position Orientation Groundspeed Altitude Reporting Facility
EDT Latitude Longitude Course Direction KTS MPH feet Rate Location/Type
Sat 05:37:40 PM 32.7667 -117.2833 287° West 229 264 3,300  Level Southern California TRACON
Sat 05:37:55 PM 32.7794 -117.2914 332° Northwest 214 246 4,100 3,039 Climbing Los Angeles Center
Sat 05:38:57 PM 32.8211 -117.3678 303° West 262 302 7,200 2,952 Climbing Los Angeles Center
Sat 05:39:59 PM 32.8633 -117.4503 301° West 287 330 10,200 2,371 Climbing Los Angeles Center
Sat 05:41:01 PM 32.9258 -117.5208 317° Northwest 314 361 12,100 2,226 Climbing Los Angeles Center
Sat 05:42:00 PM 33.0579 -117.6477 310° West  Level FlightAware Approximate
Sat 05:42:03 PM 33.0058 -117.5900 324° Northwest 342 394 14,800  Level Los Angeles Center
Sat 05:43:05 PM 33.0806 -117.6700 318° Northwest 354 407 17,500 2,516 Climbing Los Angeles Center
Sat 05:44:07 PM 33.1544 -117.7942 305° West 371 427 20,000 2,323 Climbing Los Angeles Center
Sat 05:45:09 PM 33.2239 -117.8933 310° West 384 442 22,300 1,984 Climbing Los Angeles Center
Sat 05:46:11 PM 33.2989 -117.9906 313° West 394 453 24,100 1,645 Climbing Los Angeles Center
Sat 05:47:13 PM 33.3761 -118.0914 313° West 405 466 25,700 1,597 Climbing Los Angeles Center
Sat 05:48:15 PM 33.4561 -118.1933 313° West 415 478 27,400 1,597 Climbing Los Angeles Center
Sat 05:49:17 PM 33.5364 -118.2964 313° West 419 482 29,000 774 Climbing Los Angeles Center
Sat 05:50:19 PM 33.6511 -118.3897 326° Northwest 420 483 29,000  Level Los Angeles Center
Sat 05:51:21 PM 33.7508 -118.3242 29° Northeast 427 491 29,000  Level Los Angeles Center
Sat 05:52:23 PM 33.8156 -118.2164 54° Northeast 429 494 29,000  Level Los Angeles Center
Sat 05:53:37 PM 33.9000 -118.0786 54° Northeast 429 494 29,000  Level Los Angeles Center
Sat 05:54:40 PM 33.9847 -117.9406 53° Northeast 428 493 29,000  Level Los Angeles Center
Sat 05:55:42 PM 34.0483 -117.8356 54° Northeast 431 496 29,000  Level Los Angeles Center
Sat 05:56:44 PM 34.1322 -117.7142 50° Northeast 431 496 29,000  Level Los Angeles Center
Sat 05:57:46 PM 34.2119 -117.6072 48° Northeast 430 495 29,000  Level Los Angeles Center
Sat 05:58:47 PM 34.2756 -117.5203 48° Northeast 430 495 29,000  Level Los Angeles Center
Sat 05:59:50 PM 34.3883 -117.3689 48° Northeast 434 499 29,000  Level Los Angeles Center
Sat 06:00:52 PM 34.4586 -117.2717 49° Northeast 433 498 29,000  Level Los Angeles Center
Sat 06:01:54 PM 34.5361 -117.1628 49° Northeast 431 496 29,000  Level Los Angeles Center
Sat 06:02:56 PM 34.6314 -117.0339 48° Northeast 429 494 29,000  Level Los Angeles Center
Sat 06:03:58 PM 34.7089 -116.9264 49° Northeast 427 491 29,000  Level Los Angeles Center
Sat 06:05:00 PM 34.7867 -116.8189 49° Northeast 426 490 29,000  Level Los Angeles Center
Sat 06:06:02 PM 34.8644 -116.7122 48° Northeast 424 488 29,000 -194 Level Los Angeles Center
Sat 06:07:04 PM 34.9406 -116.6056 49° Northeast 419 482 28,600 -1,333 Descending Los Angeles Center
Sat 06:08:17 PM 35.0272 -116.4925 47° Northeast 385 443 26,000 -2,044 Descending Los Angeles Center
Sat 06:09:19 PM 35.1008 -116.4022 45° Northeast 378 435 24,000 -960 Descending Los Angeles Center
Sat 06:10:22 PM 35.1861 -116.2961 45° Northeast 369 425 24,000  Level Los Angeles Center
Sat 06:11:24 PM 35.2608 -116.2047 45° Northeast 378 435 24,000 -726 Level Los Angeles Center
Sat 06:12:26 PM 35.3317 -116.1128 47° Northeast 376 433 22,500 -1,707 Descending Los Angeles Center
Sat 06:13:27 PM 35.4011 -116.0244 46° Northeast 364 419 20,500 -2,098 Descending Los Angeles Center
Sat 06:14:29 PM 35.4811 -115.9233 46° Northeast 348 400 18,200 -2,045 Descending Los Angeles Center
Sat 06:14:55 PM 35.5067 -115.8928 44° Northeast 348 400 17,500 -1,742 Descending Los Angeles Center
Sat 06:15:31 PM 35.5483 -115.8392 46° Northeast 335 386 16,400 -1,671 Descending Los Angeles Center
Sat 06:16:14 PM 35.5933 -115.7833 45° Northeast 325 374 15,300 -1,355 Descending Los Angeles Center
Sat 06:16:33 PM 35.6103 -115.7611 47° Northeast 324 373 15,000 -1,881 Descending Los Angeles Center
Sat 06:17:21 PM 35.6608 -115.6956 46° Northeast 329 379 13,200 -991 Descending Los Angeles Center
Sat 06:18:28 PM 35.7325 -115.6064 45° Northeast 319 367 13,100 -87 Descending Los Angeles Center
Sat 06:19:39 PM 35.8328 -115.5694 17° North 335 386 13,000 -49 Descending Los Angeles Center
Sat 06:20:30 PM 35.9097 -115.5678 North 312 359 13,000 -216 Level Los Angeles Center
Sat 06:21:30 PM 35.9733 -115.5128 35° Northeast 318 366 12,600 -565 Descending Los Angeles Center
Sat 06:21:55 PM 35.9817 -115.4936 62° Northeast 316 364 12,200 -1,377 Descending Los Angeles Center
Sat 06:22:31 PM 36.0128 -115.4150 64° Northeast 321 369 11,200 -1,161 Descending Los Angeles Center
Sat 06:22:57 PM 36.0278 -115.3792 63° Northeast 313 360 11,000 -218 Descending Los Angeles Center
Sat 06:23:26 PM 36.0269 -115.3306 91° East 278 320 11,000 -774 Level Los Angeles Center
Sat 06:23:59 PM 36.0244 -115.2850 94° East 289 333 10,200 -1,636 Descending Los Angeles Center
Sat 06:24:21 PM 36.0208 -115.2422 96° East 283 326 9,500 -1,161 Descending Los Angeles Center
Sat 06:25:01 PM 36.0172 -115.1894 95° East 284 327 9,000 -1,068 Descending Los Angeles Center
Sat 06:25:34 PM 36.0128 -115.1253 95° East 269 310 8,200 -968 Descending Los Angeles Center
Sat 06:26:03 PM 36.0117 -115.0969 93° East 277 319 8,000 -367 Descending Los Angeles Center
Sat 06:26:23 PM 36.0094 -115.0600 94° East 242 278 7,900 -885 Descending Los Angeles Center
Sat 06:27:04 PM 36.0053 -115.0031 95° East 241 277 7,100 -1,182 Descending Los Angeles Center
Sat 06:27:29 PM 36.0061 -114.9758 88° East 215 247 6,600 -1,645 Descending Los Angeles Center
Sat 06:28:06 PM 36.0389 -114.9636 17° North 231 266 5,400 -1,967 Descending Los Angeles Center
Sat 06:28:30 PM 36.0617 -114.9733 341° North 209 241 4,600 -1,355 Descending Los Angeles Center
Sat 06:29:08 PM 36.0744 -115.0042 297° West 209 241 4,000 -1,082 Descending Los Angeles Center
Sat 06:29:31 PM 36.0728 -115.0336 266° West 183 211 3,500 -871 Descending Los Angeles Center
Sat 06:30:10 PM 36.0744 -115.0633 274° West 186 214 3,100 -806 Descending Los Angeles Center
Sat 06:30:38 PM 36.0731 -115.0947 267° West 153 176 2,600 -689 Descending Los Angeles Center
Sat 06:31:11 PM 36.0742 -115.1061 277° West 172 198 2,400 -364 Descending Los Angeles Center
Sat 06:33:00 PM 36.0667 -115.1500 270° West  Level FlightAware Approximate

Login

Don't have an account? Register now (free) for customized features, flight alerts, and more!